FW9488 Weather Reports


Display with metric or nautical units.
time (UTC)temp
F
wind
direction
speed
MPH
gust
MPH
rain 1hr
in
rain 24hr
in
rain mn
in
humidity
%
barometer
mb
20260502163056 77 0 0.0 4.0 0.00 0.00 0.00 12 1016.6
20260502161552 76 238 0.0 4.0 0.00 0.00 0.00 13 1016.6
20260502151557 68 0 0.0 2.0 0.00 0.00 0.00 17 1016.5
20260502123048 53 0 0.0 3.0 0.00 0.00 0.00 27 1015.2
20260502121549 53 360 2.0 5.0 0.00 0.00 0.00 26 1015.1
20260502114621 54 360 0.0 2.0 0.00 0.00 0.00 25 1015.0
20260502113049 55 360 2.0 4.0 0.00 0.00 0.00 25 1015.2
20260502111550 56 0 0.0 1.0 0.00 0.00 0.00 24 1015.1
20260502110050 57 360 1.0 3.0 0.00 0.00 0.00 22 1015.1
20260502104551 57 360 2.0 5.0 0.00 0.00 0.00 21 1015.1
20260502103047 57 0 1.0 4.0 0.00 0.00 0.00 22 1014.8
20260502101603 58 0 0.0 2.0 0.00 0.00 0.00 21 1014.9
20260502100105 59 360 1.0 4.0 0.00 0.00 0.00 19 1014.9
20260502064614 68 194 2.0 5.0 0.00 0.00 0.00 16 1014.9
20260502063104 69 185 3.0 8.0 0.00 0.00 0.00 16 1014.8
20260502061548 70 145 1.0 8.0 0.00 0.00 0.00 15 1014.5
20260502060049 71 76 1.0 4.0 0.00 0.00 0.00 15 1014.5
20260502054549 72 152 4.0 10.0 0.00 0.00 0.00 14 1014.4
20260502053056 70 100 4.0 8.0 0.00 0.00 0.00 15 1014.3
20260502051547 69 0 0.0 3.0 0.00 0.00 0.00 16 1014.3
20260502050050 71 239 0.0 3.0 0.00 0.00 0.00 15 1014.2
20260502044547 73 83 3.0 8.0 0.00 0.00 0.00 14 1013.9
20260502043113 73 81 5.0 11.0 0.00 0.00 0.00 14 1013.8
20260502041559 73 56 6.0 12.0 0.00 0.00 0.00 14 1013.5
20260502040047 72 60 2.0 6.0 0.00 0.00 0.00 15 1013.5
20260502034549 73 0 0.0 1.0 0.00 0.00 0.00 15 1013.1
20260502033045 74 65 1.0 4.0 0.00 0.00 0.00 14 1012.9
20260502031548 75 69 3.0 5.0 0.00 0.00 0.00 13 1012.7
20260502030051 76 57 2.0 6.0 0.00 0.00 0.00 13 1012.7
20260502024550 77 55 2.0 6.0 0.00 0.00 0.00 13 1012.4
20260502023050 78 26 2.0 6.0 0.00 0.00 0.00 13 1012.4
20260502021553 79 17 2.0 5.0 0.00 0.00 0.00 12 1012.3
20260502020051 80 30 5.0 12.0 0.00 0.00 0.00 12 1012.1
20260502014551 81 26 5.0 11.0 0.00 0.00 0.00 12 1012.1
20260502013055 82 360 7.0 13.0 0.00 0.00 0.00 12 1012.1
20260502011553 82 350 8.0 14.0 0.00 0.00 0.00 11 1012.0
20260502010059 83 351 5.0 12.0 0.00 0.00 0.00 11 1012.0
20260502004546 83 331 7.0 16.0 0.00 0.00 0.00 12 1012.0
20260502003048 83 327 7.0 14.0 0.00 0.00 0.00 12 1011.9
20260502001543 83 331 7.0 15.0 0.00 0.00 0.00 12 1012.0
20260502000051 83 9 10.0 16.0 0.00 0.00 0.00 12 1012.0
20260501234546 83 329 6.0 14.0 0.00 0.00 0.00 12 1012.1
20260501233050 83 339 7.0 20.0 0.00 0.00 0.00 12 1012.2
20260501231551 83 313 9.0 15.0 0.00 0.00 0.00 12 1012.4
20260501230048 83 339 8.0 16.0 0.00 0.00 0.00 12 1012.5
20260501224547 84 298 6.0 10.0 0.00 0.00 0.00 12 1012.5
20260501223046 83 336 9.0 16.0 0.00 0.00 0.00 12 1012.9
20260501221549 83 277 8.0 17.0 0.00 0.00 0.00 12 1012.9
20260501220105 83 296 6.0 18.0 0.00 0.00 0.00 12 1012.9
20260501214548 83 321 7.0 17.0 0.00 0.00 0.00 12 1013.0
20260501213050 83 338 9.0 18.0 0.00 0.00 0.00 13 1013.2
20260501211558 82 327 9.0 17.0 0.00 0.00 0.00 12 1013.5
20260501210048 82 335 8.0 16.0 0.00 0.00 0.00 12 1013.6
20260501204600 82 348 6.0 18.0 0.00 0.00 0.00 13 1013.8
20260501203045 82 300 6.0 16.0 0.00 0.00 0.00 12 1013.9
20260501201550 82 239 6.0 12.0 0.00 0.00 0.00 14 1014.1
20260501200050 82 258 7.0 14.0 0.00 0.00 0.00 14 1014.2
20260501194550 82 314 8.0 15.0 0.00 0.00 0.00 15 1014.2
20260501193050 82 82 3.0 8.0 0.00 0.00 0.00 15 1014.3
20260501191548 81 344 9.0 16.0 0.00 0.00 0.00 16 1014.9
20260501190049 80 253 3.0 11.0 0.00 0.00 0.00 16 1014.9
20260501184552 80 5 8.0 13.0 0.00 0.00 0.00 16 1015.2
20260501183103 79 267 2.0 10.0 0.00 0.00 0.00 16 1015.2
20260501181552 79 360 7.0 11.0 0.00 0.00 0.00 16 1015.2
20260501180055 78 255 4.0 9.0 0.00 0.00 0.00 16 1015.3
20260501174550 77 314 0.0 6.0 0.00 0.00 0.00 17 1015.4
20260501173051 76 0 2.0 8.0 0.00 0.00 0.00 17 1015.4